User: anonymous   Login
Location: Roanoke
(37.2710°N, 79.9420°W)
Time: 00:32:47
(UTC-04:00)
Language:

FENGYUN 3A - Orbit

View from above orbital plane
View from above orbital plane
View from above satellite
View from above satellite

Ground track
Ground track

The orbit data is extracted from the following two-line orbital elements,

1 32958U 08026A   16207.75023639  .00000014  00000-0  26394-4 0  9997
2 32958  98.4494 246.0527 0010213 141.6457 218.5441 14.19625269423029
Epoch (UTC): 25 July 2016 18:00:20
Eccentricity: 0.0010213
inclination: 98.4494°
perigee height: 819 km
apogee height: 834 km
right ascension of ascending node: 246.0527°
argument of perigee: 141.6457°
revolutions per day: 14.19625269
mean anomaly at epoch: 218.5441°
orbit number at epoch: 42302

The dashed part of the orbit path shows where the satellite is in the earth's shadow,  

DLR